When you browse on this site, cookies collect data to enhance your experience and personalize the content and advertising you see.
Visit our Privacy Policy to learn more. By continuing to use the site, you agree to this use of cookies and data.
  • en France
  • Liste des pays
  • À 7 jours
  • Température de l'eau
  • Carte météo
  • Widgets météo
  • user-avatar
    Se connecter

    Météo par heure à Halifax

    Ce jour, 1 Juin, Lundi

    Heure Température Précipitation Vent Pression Humidité
    00:00 +12°C° 0 mm 5 m/s 756 mmHg 75%
    01:00 +10°C° 0 mm 5 m/s 756 mmHg 76%
    02:00 +9°C° 0 mm 5 m/s 756 mmHg 76%
    03:00 +10°C° 0 mm 4 m/s 756 mmHg 74%
    04:00 +8°C° 0 mm 4 m/s 756 mmHg 71%
    05:00 +8°C° 0 mm 4 m/s 756 mmHg 68%
    06:00 +8°C° 0 mm 4 m/s 757 mmHg 65%
    07:00 +10°C° 0 mm 4 m/s 757 mmHg 61%
    08:00 +10°C° 0 mm 3 m/s 757 mmHg 58%
    09:00 +12°C° 0 mm 3 m/s 757 mmHg 53%
    10:00 +13°C° 0 mm 3 m/s 757 mmHg 48%
    11:00 +14°C° 0 mm 3 m/s 757 mmHg 43%
    12:00 +14°C° 0 mm 3 m/s 757 mmHg 43%
    13:00 +14°C° 0 mm 3 m/s 756 mmHg 42%
    14:00 +14°C° 0 mm 3 m/s 756 mmHg 42%
    15:00 +14°C° 0 mm 3 m/s 756 mmHg 42%
    16:00 +14°C° 0 mm 3 m/s 756 mmHg 43%
    17:00 +14°C° 0 mm 3 m/s 756 mmHg 43%
    18:00 +12°C° 0 mm 3 m/s 756 mmHg 50%
    19:00 +10°C° 0 mm 3 m/s 756 mmHg 56%
    20:00 +8°C° 0 mm 3 m/s 756 mmHg 63%
    21:00 +7°C° 0 mm 3 m/s 756 mmHg 67%
    22:00 +7°C° 0 mm 2 m/s 756 mmHg 70%
    23:00 +6°C° 0 mm 2 m/s 756 mmHg 74%

    Demain, 2 Juin, Mardi

    Heure Température Précipitation Vent Pression Humidité
    00:00 +5°C° 0 mm 2 m/s 756 mmHg 78%
    01:00 +4°C° 0 mm 3 m/s 756 mmHg 82%
    02:00 +4°C° 0 mm 3 m/s 756 mmHg 86%
    03:00 +4°C° 0 mm 3 m/s 755 mmHg 85%
    04:00 +4°C° 0 mm 3 m/s 755 mmHg 83%
    05:00 +4°C° 0 mm 3 m/s 755 mmHg 82%
    06:00 +7°C° 0 mm 3 m/s 755 mmHg 74%
    07:00 +8°C° 0 mm 4 m/s 755 mmHg 66%
    08:00 +11°C° 0 mm 4 m/s 755 mmHg 58%
    09:00 +12°C° 0 mm 4 m/s 755 mmHg 52%
    10:00 +13°C° 0 mm 5 m/s 755 mmHg 46%
    11:00 +15°C° 0 mm 5 m/s 754 mmHg 40%
    12:00 +15°C° 0 mm 5 m/s 754 mmHg 39%
    13:00 +17°C° 0 mm 4 m/s 754 mmHg 38%
    14:00 +17°C° 0 mm 4 m/s 754 mmHg 36%
    15:00 +17°C° 0 mm 4 m/s 753 mmHg 37%
    16:00 +17°C° 0 mm 4 m/s 753 mmHg 37%
    17:00 +15°C° 0 mm 4 m/s 753 mmHg 37%
    18:00 +13°C° 0 mm 3 m/s 753 mmHg 47%
    19:00 +12°C° 0 mm 2 m/s 753 mmHg 56%
    20:00 +10°C° 0 mm 1 m/s 754 mmHg 65%
    21:00 +9°C° 0 mm 2 m/s 754 mmHg 66%
    22:00 +8°C° 0 mm 3 m/s 753 mmHg 67%
    23:00 +7°C° 0 mm 3 m/s 753 mmHg 68%

    Après-demain, 3 Juin, Mercredi

    Heure Température Précipitation Vent Pression Humidité
    00:00 +6°C° 0 mm 4 m/s 753 mmHg 70%
    01:00 +5°C° 0 mm 4 m/s 753 mmHg 72%
    02:00 +5°C° 0 mm 4 m/s 753 mmHg 74%
    03:00 +5°C° 0 mm 4 m/s 753 mmHg 76%
    04:00 +5°C° 0 mm 4 m/s 753 mmHg 79%
    05:00 +5°C° 0 mm 4 m/s 752 mmHg 81%
    06:00 +7°C° 0 mm 4 m/s 752 mmHg 76%
    07:00 +9°C° 0 mm 5 m/s 752 mmHg 72%
    08:00 +10°C° 0 mm 5 m/s 752 mmHg 67%
    09:00 +10°C° 0.6 mm 5 m/s 752 mmHg 75%
    10:00 +9°C° 0.6 mm 5 m/s 751 mmHg 83%
    11:00 +8°C° 0.6 mm 5 m/s 751 mmHg 91%
    12:00 +8°C° 0.3 mm 5 m/s 751 mmHg 92%
    13:00 +8°C° 0.3 mm 6 m/s 750 mmHg 93%
    14:00 +9°C° 0.3 mm 6 m/s 749 mmHg 94%
    15:00 +9°C° 0.9 mm 6 m/s 749 mmHg 95%
    16:00 +9°C° 0.9 mm 6 m/s 749 mmHg 96%
    17:00 +9°C° 0.9 mm 6 m/s 748 mmHg 97%
    18:00 +9°C° 0.2 mm 5 m/s 748 mmHg 97%
    19:00 +9°C° 0.2 mm 5 m/s 748 mmHg 97%
    20:00 +10°C° 0.2 mm 4 m/s 748 mmHg 97%
    21:00 +10°C° 0 mm 4 m/s 748 mmHg 98%
    22:00 +10°C° 0 mm 4 m/s 748 mmHg 98%
    23:00 +10°C° 0 mm 4 m/s 748 mmHg 98%

    4 Juin, Jeudi

    Heure Température Précipitation Vent Pression Humidité
    00:00 +11°C° 0.4 mm 4 m/s 748 mmHg 98%
    01:00 +11°C° 0.4 mm 4 m/s 747 mmHg 98%
    02:00 +11°C° 0.4 mm 4 m/s 747 mmHg 99%
    03:00 +11°C° 1.3 mm 4 m/s 747 mmHg 99%
    04:00 +12°C° 1.3 mm 4 m/s 747 mmHg 99%
    05:00 +12°C° 1.3 mm 4 m/s 747 mmHg 99%
    06:00 +13°C° 0 mm 3 m/s 747 mmHg 98%
    07:00 +14°C° 0 mm 3 m/s 748 mmHg 97%
    08:00 +16°C° 0 mm 3 m/s 748 mmHg 96%
    09:00 +18°C° 0 mm 3 m/s 748 mmHg 88%
    10:00 +20°C° 0 mm 3 m/s 749 mmHg 80%
    11:00 +21°C° 0 mm 4 m/s 749 mmHg 72%
    12:00 +22°C° 0 mm 4 m/s 749 mmHg 67%
    13:00 +23°C° 0 mm 5 m/s 750 mmHg 62%
    14:00 +25°C° 0 mm 5 m/s 750 mmHg 57%
    15:00 +23°C° 0 mm 5 m/s 750 mmHg 57%
    16:00 +23°C° 0 mm 4 m/s 751 mmHg 58%
    17:00 +22°C° 0 mm 4 m/s 751 mmHg 58%
    18:00 +20°C° 0 mm 4 m/s 752 mmHg 65%
    19:00 +18°C° 0 mm 3 m/s 752 mmHg 72%
    20:00 +16°C° 0 mm 3 m/s 753 mmHg 79%
    21:00 +14°C° 0 mm 3 m/s 753 mmHg 81%
    22:00 +14°C° 0 mm 3 m/s 754 mmHg 84%
    23:00 +13°C° 0 mm 3 m/s 754 mmHg 87%

    5 Juin, Vendredi

    Heure Température Précipitation Vent Pression Humidité
    00:00 +13°C° 0 mm 3 m/s 754 mmHg 89%
    01:00 +13°C° 0 mm 3 m/s 755 mmHg 91%
    02:00 +12°C° 0 mm 3 m/s 755 mmHg 93%
    03:00 +12°C° 0 mm 3 m/s 755 mmHg 95%
    04:00 +11°C° 0 mm 3 m/s 755 mmHg 96%
    05:00 +11°C° 0 mm 3 m/s 755 mmHg 98%
    06:00 +13°C° 0 mm 3 m/s 755 mmHg 88%
    07:00 +16°C° 0 mm 3 m/s 756 mmHg 79%
    08:00 +19°C° 0 mm 3 m/s 756 mmHg 70%
    09:00 +20°C° 0 mm 3 m/s 756 mmHg 62%
    10:00 +22°C° 0 mm 4 m/s 756 mmHg 55%
    11:00 +25°C° 0 mm 4 m/s 756 mmHg 47%
    12:00 +23°C° 0 mm 4 m/s 755 mmHg 50%
    13:00 +23°C° 0 mm 5 m/s 755 mmHg 53%
    14:00 +23°C° 0 mm 5 m/s 754 mmHg 57%
    15:00 +22°C° 0 mm 6 m/s 754 mmHg 60%
    16:00 +21°C° 0 mm 6 m/s 754 mmHg 64%
    17:00 +20°C° 0 mm 6 m/s 753 mmHg 68%
    18:00 +19°C° 0 mm 6 m/s 753 mmHg 77%
    19:00 +16°C° 0 mm 6 m/s 753 mmHg 87%
    20:00 +15°C° 0 mm 6 m/s 753 mmHg 96%
    21:00 +15°C° 0.1 mm 6 m/s 753 mmHg 97%
    22:00 +15°C° 0.1 mm 6 m/s 752 mmHg 97%
    23:00 +15°C° 0.1 mm 6 m/s 752 mmHg 97%

    6 Juin, Samedi

    Heure Température Précipitation Vent Pression Humidité
    00:00 +15°C° 0.7 mm 5 m/s 752 mmHg 98%
    01:00 +15°C° 0.7 mm 5 m/s 752 mmHg 98%
    02:00 +15°C° 0.7 mm 5 m/s 751 mmHg 98%
    03:00 +15°C° 0.2 mm 5 m/s 751 mmHg 98%
    04:00 +15°C° 0.2 mm 5 m/s 751 mmHg 98%
    05:00 +15°C° 0.2 mm 5 m/s 751 mmHg 98%
    06:00 +16°C° 0 mm 5 m/s 751 mmHg 97%
    07:00 +16°C° 0 mm 5 m/s 751 mmHg 96%
    08:00 +16°C° 0 mm 6 m/s 751 mmHg 95%
    09:00 +19°C° 0 mm 5 m/s 751 mmHg 86%
    10:00 +20°C° 0 mm 5 m/s 751 mmHg 78%
    11:00 +22°C° 0 mm 5 m/s 752 mmHg 69%
    12:00 +22°C° 0.1 mm 5 m/s 751 mmHg 68%
    13:00 +23°C° 0.1 mm 5 m/s 751 mmHg 66%
    14:00 +23°C° 0.1 mm 5 m/s 751 mmHg 65%
    15:00 +22°C° 0.1 mm 5 m/s 751 mmHg 68%
    16:00 +21°C° 0.1 mm 4 m/s 752 mmHg 71%
    17:00 +20°C° 0.1 mm 4 m/s 752 mmHg 74%
    18:00 +19°C° 0 mm 3 m/s 752 mmHg 81%
    19:00 +17°C° 0 mm 3 m/s 753 mmHg 87%
    20:00 +16°C° 0 mm 2 m/s 753 mmHg 93%
    21:00 +15°C° 0 mm 2 m/s 753 mmHg 94%
    22:00 +13°C° 0 mm 3 m/s 753 mmHg 94%
    23:00 +12°C° 0 mm 3 m/s 753 mmHg 95%
    Voir plus